RH
78 86 98 93 88 84 77 75 72 71 66 62 57 61 61 69 71 70 64 61 62 68 61 51 45 42 51 45 43 41 38 33 27 25 28 35 37 36 35 39 37 36 31
71 85 91 92 86 85 81 77 80 76 71 69 65 62 68 60 59 71 63 69 83 67 61 46 49 54 58 49 46 47 41 36 31 28 38 37 36 40 42 38 39 36 30
70 83 92 98 96 89 88 91 89 84 76 81 72 65 70 74 77 71 75 76 83 84 56 52 41 40 41 39 43 37 34 30 26 33 36 40 44 43 40 39 33 27 24
80 77 92 96 96 99 97 93 91 90 83 78 69 62 61 71 74 83 70 72 75 79 62 50 48 47 44 43 40 36 33 31 34 37 44 43 39 42 39 33 28 26 24
87 74 83 94 97 96 97 98 98 88 86 84 68 79 78 73 68 70 66 64 61 60 52 56 53 44 42 38 37 37 40 38 43 45 47 49 45 38 33 31 29 25 22
97 78 74 91 93 97 97 99 98 98 87 75 76 77 80 78 78 75 70 70 61 58 54 50 48 45 45 45 43 41 43 49 54 53 52 44 38 34 33 31 27 25 24
96 82 73 86 87 92 91 93 96 88 84 85 80 84 87 79 76 71 64 65 61 56 52 54 51 49 49 49 51 57 57 58 57 50 44 40 36 35 32 29 27 26 24
98 95 91 81 88 91 82 82 84 86 81 90 87 86 82 73 69 62 65 63 61 58 56 54 59 51 52 58 57 63 63 55 49 46 43 39 37 35 33 30 29 27 23
98 98 97 90 83 90 92 90 84 85 89 87 88 88 90 88 75 67 69 66 61 57 59 56 51 57 63 71 61 56 53 52 50 48 44 41 38 36 33 31 28 25 24
97 94 98 95 91 89 95 94 84 86 92 96 92 78 75 77 73 66 62 67 63 61 65 69 62 67 67 60 60 58 55 54 51 48 45 41 38 36 33 30 28 25 26
92 92 93 91 91 92 93 94 95 92 88 81 72 69 67 67 66 74 72 68 77 74 63 67 68 62 63 63 61 60 58 55 52 49 46 43 40 37 34 29 27 27 25
94 94 93 95 96 98 96 97 92 88 84 79 77 75 76 75 68 64 76 73 68 72 67 63 64 66 65 63 60 59 58 57 54 52 50 45 40 37 31 27 26 25 26
91 92 94 95 98 98 98 95 90 79 77 79 81 73 70 76 80 71 73 77 71 65 66 65 65 65 61 58 58 60 59 60 60 55 50 44 41 35 29 26 25 26 24
94 96 94 95 96 96 92 84 83 80 75 74 82 87 85 77 78 80 72 66 64 63 63 61 59 57 54 54 57 64 65 64 61 55 50 44 39 32 27 25 24 23 20
92 95 96 94 89 81 77 80 85 88 92 91 88 84 81 74 69 67 65 64 61 58 57 55 52 51 51 53 61 67 67 65 61 55 48 43 38 29 25 24 23 22 24
96 95 91 87 83 82 87 92 95 92 90 85 74 67 69 68 65 63 62 60 57 54 52 52 52 51 51 56 62 70 71 67 60 54 48 42 33 25 23 24 25 26 28
96 91 90 87 89 95 97 95 85 81 80 73 64 60 62 63 62 60 57 55 55 54 53 52 51 52 53 57 67 73 75 71 62 54 47 38 26 25 26 28 29 30 32
94 94 93 94 94 91 87 79 74 69 62 56 52 54 56 57 58 58 58 57 56 54 53 52 53 54 53 61 74 79 77 70 61 54 43 29 25 26 29 32 32 32 34
93 91 87 82 77 74 70 63 58 54 50 49 50 53 57 58 58 58 56 55 54 53 55 56 55 55 58 69 79 81 77 70 60 50 36 26 26 29 32 34 34 34 38
84 82 79 71 65 62 60 58 58 57 54 54 55 57 58 59 57 55 56 58 58 57 58 58 58 60 66 73 82 84 80 67 55 44 32 27 28 30 33 35 36 36 39
87 86 82 72 62 61 63 64 64 63 59 57 57 58 59 59 58 57 58 60 63 60 63 59 59 70 69 78 83 85 79 61 46 39 31 25 26 30 36 38 38 38 44
89 87 80 74 65 64 64 65 65 65 64 61 60 60 59 59 59 60 68 74 67 65 59 61 70 73 80 84 82 82 65 48 39 36 30 25 27 32 38 40 39 42 50
88 84 77 72 65 65 66 67 68 69 69 67 66 65 65 63 66 74 79 71 68 60 66 70 72 80 86 81 71 61 49 39 38 35 28 26 30 37 41 39 41 48 59
88 86 82 79 73 70 69 70 71 72 72 72 73 74 74 75 78 77 66 58 60 68 61 63 78 85 81 66 50 43 40 38 38 32 27 29 35 41 42 41 50 57 64
89 86 84 81 77 75 75 76 78 79 79 78 78 79 78 76 74 68 67 71 63 65 78 83 82 71 56 40 42 40 38 38 33 27 30 36 41 43 44 48 54 59 62
86 86 85 83 81 80 79 80 78 73 71 73 77 77 70 63 65 60 56 64 76 80 81 69 56 41 42 41 37 37 37 31 27 32 39 42 42 46 52 54 56 59 59